Greenwood, SC

1:23 AM EDT on September 29, 2016 (GMT -0400)
Greenwood County

Weather History for KGRD - July, 2013

Change the Weather History Date:

Sunday, July 21, 2013

  Actual Average (KAND) Record (KAND)
Temperature  
Mean Temperature 80 °F -  
Max Temperature 89 °F 92 °F 103 °F (1952)
Min Temperature 71 °F 70 °F 64 °F (1978)
Cooling Degree Days 14    
Growing Degree Days 30 (Base 50)    
Moisture  
Dew Point 72 °F    
Average Humidity 85    
Maximum Humidity 100    
Minimum Humidity 59    
Precipitation  
Precipitation 0.61 in - - ()
Sea Level Pressure  
Sea Level Pressure 30.01 in    
Wind  
Wind Speed 6 mph (WSW)    
Max Wind Speed 10 mph    
Max Gust Speed 17 mph    
Visibility 8 miles    
Events Rain , Thunderstorm    
Averages and records for this station are not official NWS values.
T = Trace of Precipitation, MM = Missing Value Source: NWS Daily Summary

Daily Weather History Graph

Daily Weather History Graph

Search for Another Location

Airport or City:

Trip Planner

Search our weather history database for the weather conditions in past years. The results will help you decide how hot, cold, wet, or windy it might be!

Date:

Astronomy

Jul. 21, 2013 Rise Set
Actual Time 6:31 AM EDT 8:37 PM EDT
Civil Twilight 6:03 AM EDT 9:05 PM EDT
Nautical Twilight 5:29 AM EDT 9:40 PM EDT
Astronomical Twilight 4:52 AM EDT 10:17 PM EDT
Moon 7:36 PM EDT (7/21) 5:15 AM EDT (7/21)
Length of Visible Light 15h 02m
Length of Day
14h 05m
Waxing Gibbous, 98% of the Moon is Illuminated
Jul 21
Waxing Gibbous
Jul 22
Full
Jul 29
Last Quarter
Aug 6
New
Aug 14
First Quarter

Hourly Weather History & Observations

Time (EDT) Temp. Heat Index Dew Point Humidity Pressure Visibility Wind Dir Wind Speed Gust Speed Precip Events Conditions
12:21 AM 75.2 °F - 73.4 °F 94% 30.05 in 9.0 mi Calm Calm - N/A   Overcast
12:56 AM 75.0 °F - 73.0 °F 94% 30.01 in 10.0 mi South 5.8 mph - 0.01 in   Overcast
1:22 AM 73.4 °F - 71.6 °F 94% 30.03 in 10.0 mi SSW 4.6 mph - N/A   Scattered Clouds
1:56 AM 73.9 °F - 72.0 °F 93% 30.01 in 10.0 mi SW 5.8 mph - N/A   Clear
2:56 AM 73.0 °F - 72.0 °F 96% 30.00 in 10.0 mi SW 4.6 mph - N/A   Overcast
3:15 AM 73.4 °F - 71.6 °F 94% 30.02 in 9.0 mi SW 4.6 mph - N/A   Mostly Cloudy
3:56 AM 73.0 °F - 72.0 °F 96% 29.99 in 8.0 mi SSW 3.5 mph - N/A   Mostly Cloudy
4:16 AM 73.4 °F - 71.6 °F 94% 30.02 in 8.0 mi SSW 3.5 mph - N/A   Overcast
4:25 AM 73.4 °F - 71.6 °F 94% 30.02 in 9.0 mi SSW 4.6 mph - N/A   Overcast
4:56 AM 73.0 °F - 72.0 °F 96% 29.98 in 9.0 mi SSW 6.9 mph - N/A   Overcast
5:56 AM 73.0 °F - 72.0 °F 96% 29.99 in 10.0 mi WSW 8.1 mph - N/A   Overcast
6:56 AM 73.0 °F - 71.1 °F 93% 30.00 in 8.0 mi WSW 5.8 mph - N/A   Mostly Cloudy
7:08 AM 73.4 °F - 71.6 °F 94% 30.02 in 8.0 mi SW 6.9 mph - N/A   Scattered Clouds
7:25 AM 73.4 °F - 71.6 °F 94% 30.02 in 8.0 mi SW 6.9 mph - N/A   Mostly Cloudy
7:56 AM 75.0 °F - 72.0 °F 90% 30.01 in 8.0 mi SW 9.2 mph - N/A   Mostly Cloudy
8:56 AM 77.0 °F - 73.0 °F 88% 30.03 in 10.0 mi WSW 6.9 mph - N/A   Mostly Cloudy
9:34 AM 78.8 °F - 73.4 °F 83% 30.05 in 10.0 mi WSW 6.9 mph - N/A   Mostly Cloudy
9:56 AM 78.1 °F - 73.0 °F 84% 30.03 in 10.0 mi SW 10.4 mph - N/A   Mostly Cloudy
10:09 AM 78.8 °F - 73.4 °F 83% 30.05 in 10.0 mi SW 6.9 mph - N/A   Scattered Clouds
10:18 AM 78.8 °F - 73.4 °F 83% 30.06 in 10.0 mi WSW 6.9 mph - N/A   Mostly Cloudy
10:40 AM 78.8 °F - 73.4 °F 83% 30.06 in 10.0 mi West 6.9 mph - N/A   Scattered Clouds
10:56 AM 80.1 °F 84.2 °F 73.0 °F 79% 30.04 in 10.0 mi WSW 6.9 mph - N/A   Scattered Clouds
11:52 AM 82.4 °F 88.2 °F 73.4 °F 74% 30.06 in 10.0 mi WSW 6.9 mph - N/A   Mostly Cloudy
11:56 AM 82.9 °F 88.8 °F 73.0 °F 72% 30.04 in 10.0 mi SW 10.4 mph - N/A   Mostly Cloudy
12:34 PM 84.2 °F 90.9 °F 73.4 °F 70% 30.05 in 10.0 mi WSW 9.2 mph - N/A   Mostly Cloudy
12:56 PM 84.9 °F 92.1 °F 73.9 °F 69% 30.02 in 10.0 mi SSW 8.1 mph - N/A   Scattered Clouds
1:56 PM 84.9 °F 90.7 °F 72.0 °F 65% 29.99 in 10.0 mi WSW 8.1 mph - N/A   Scattered Clouds
2:07 PM 86.0 °F 93.4 °F 73.4 °F 66% 30.01 in 10.0 mi SW 8.1 mph 17.3 mph N/A   Mostly Cloudy
2:23 PM 86.0 °F 91.8 °F 71.6 °F 62% 30.00 in 10.0 mi WSW 8.1 mph - N/A   Scattered Clouds
2:56 PM 87.1 °F 93.6 °F 72.0 °F 61% 29.96 in 10.0 mi SW 9.2 mph - N/A   Scattered Clouds
3:56 PM 87.1 °F 93.6 °F 72.0 °F 61% 29.95 in 10.0 mi SW 5.8 mph - N/A   Scattered Clouds
4:56 PM 88.0 °F 94.7 °F 72.0 °F 59% 29.94 in 10.0 mi SW 10.4 mph - N/A   Scattered Clouds
5:56 PM 87.1 °F 94.5 °F 73.0 °F 63% 29.94 in 10.0 mi South 6.9 mph - N/A   Scattered Clouds
6:56 PM 84.9 °F 91.4 °F 73.0 °F 67% 29.94 in 10.0 mi SSW 6.9 mph - N/A   Partly Cloudy
7:56 PM 82.9 °F 89.4 °F 73.9 °F 74% 29.96 in 10.0 mi SSW 5.8 mph - N/A   Mostly Cloudy
8:56 PM 81.0 °F 86.2 °F 73.9 °F 79% 29.96 in 10.0 mi Calm Calm - N/A   Mostly Cloudy
9:32 PM 75.2 °F - 73.4 °F 94% 30.00 in 10.0 mi Calm Calm - 0.03 in   Overcast
9:45 PM 75.2 °F - 71.6 °F 89% 30.02 in 5.0 mi WNW 10.4 mph 16.1 mph 0.07 in Thunderstorm Overcast
9:49 PM 73.4 °F - 71.6 °F 94% 30.02 in 1.8 mi NW 8.1 mph 16.1 mph 0.17 in Rain , Thunderstorm Heavy Rain
9:56 PM 73.0 °F - 71.1 °F 93% 29.99 in 1.2 mi North 5.8 mph - 0.25 in Rain , Thunderstorm Heavy Rain
9:58 PM 73.4 °F - 71.6 °F 94% 30.01 in 1.8 mi North 5.8 mph - 0.01 in Rain Heavy Rain
10:02 PM 73.4 °F - 71.6 °F 94% 30.01 in 3.0 mi NW 8.1 mph - 0.01 in Rain Heavy Rain
10:11 PM 73.4 °F - 71.6 °F 94% 30.03 in 10.0 mi NNW 10.4 mph 16.1 mph 0.02 in Rain , Thunderstorm Light Rain
10:27 PM 71.6 °F - 71.6 °F 100% 30.05 in 2.5 mi NNW 9.2 mph - 0.12 in Rain Heavy Rain
10:45 PM 71.6 °F - 69.8 °F 94% 30.06 in 1.2 mi North 6.9 mph - 0.31 in Rain Heavy Rain
10:51 PM 71.6 °F - 69.8 °F 94% 30.07 in 3.0 mi North 6.9 mph - 0.32 in Rain Light Rain
10:56 PM 71.1 °F - 70.0 °F 96% 30.04 in 6.0 mi North 4.6 mph - 0.33 in Rain Light Rain
11:56 PM 72.0 °F - 70.0 °F 93% 30.00 in 10.0 mi WSW 3.5 mph - 0.02 in   Partly Cloudy